• In Denmark
  • List of Countries
  • For 7 days
  • Water Temperature
  • Satellite Maps
  • Weather Map
  • Weather Widgets
  • user-avatar
    Login

    Hourly Weather Guanare

    Today, 23 September, Sunday

    Time Temperature Precipitation Wind Pressure Humidity
    00:00 +25°C° 1.1 mm 1 mps 740 mmHg 91%
    01:00 +25°C° 1.1 mm 1 mps 740 mmHg 91%
    02:00 +25°C° 0.5 mm 1 mps 740 mmHg 90%
    03:00 +25°C° 0.5 mm 1 mps 739 mmHg 89%
    04:00 +25°C° 0.5 mm 1 mps 739 mmHg 88%
    05:00 +25°C° 0.3 mm 1 mps 740 mmHg 87%
    06:00 +23°C° 0.3 mm 0 mps 740 mmHg 86%
    07:00 +24°C° 0.3 mm 0 mps 741 mmHg 84%
    08:00 +27°C° 0.2 mm 1 mps 741 mmHg 78%
    09:00 +29°C° 0.2 mm 1 mps 741 mmHg 72%
    10:00 +30°C° 0.2 mm 1 mps 741 mmHg 66%
    11:00 +31°C° 0.1 mm 1 mps 741 mmHg 64%
    12:00 +32°C° 0.1 mm 2 mps 740 mmHg 61%
    13:00 +32°C° 0.1 mm 2 mps 739 mmHg 59%
    14:00 +32°C° 0.2 mm 2 mps 739 mmHg 63%
    15:00 +31°C° 0.2 mm 1 mps 738 mmHg 68%
    16:00 +30°C° 0.2 mm 1 mps 738 mmHg 73%
    17:00 +29°C° 0.4 mm 1 mps 738 mmHg 79%
    18:00 +28°C° 0.4 mm 1 mps 739 mmHg 85%
    19:00 +24°C° 0.4 mm 0 mps 739 mmHg 91%
    20:00 +24°C° 0.9 mm 0 mps 740 mmHg 92%
    21:00 +24°C° 0.9 mm 0 mps 741 mmHg 93%
    22:00 +25°C° 0.9 mm 1 mps 741 mmHg 94%
    23:00 +25°C° 0.8 mm 1 mps 741 mmHg 94%

    Tomorrow, 24 September, Monday

    Time Temperature Precipitation Wind Pressure Humidity
    00:00 +25°C° 0.8 mm 1 mps 741 mmHg 93%
    01:00 +25°C° 0.8 mm 1 mps 741 mmHg 93%
    02:00 +24°C° 0.6 mm 1 mps 740 mmHg 92%
    03:00 +24°C° 0.6 mm 1 mps 740 mmHg 91%
    04:00 +24°C° 0.6 mm 1 mps 740 mmHg 89%
    05:00 +25°C° 0.1 mm 1 mps 741 mmHg 87%
    06:00 +25°C° 0.1 mm 1 mps 741 mmHg 85%
    07:00 +24°C° 0.1 mm 0 mps 742 mmHg 82%
    08:00 +27°C° 0.2 mm 1 mps 742 mmHg 76%
    09:00 +29°C° 0.2 mm 1 mps 743 mmHg 69%
    10:00 +31°C° 0.2 mm 1 mps 743 mmHg 63%
    11:00 +31°C° 0.6 mm 1 mps 742 mmHg 63%
    12:00 +32°C° 0.6 mm 1 mps 742 mmHg 64%
    13:00 +32°C° 0.6 mm 1 mps 741 mmHg 64%
    14:00 +31°C° 0.7 mm 1 mps 740 mmHg 69%
    15:00 +30°C° 0.7 mm 1 mps 740 mmHg 74%
    16:00 +29°C° 0.7 mm 1 mps 740 mmHg 78%
    17:00 +28°C° 0.1 mm 1 mps 740 mmHg 83%
    18:00 +27°C° 0.1 mm 1 mps 740 mmHg 88%
    19:00 +26°C° 0.1 mm 1 mps 741 mmHg 92%
    20:00 +26°C° 0.1 mm 1 mps 741 mmHg 91%
    21:00 +25°C° 0.1 mm 1 mps 742 mmHg 90%
    22:00 +25°C° 0.1 mm 1 mps 743 mmHg 89%
    23:00 +25°C° 0.1 mm 1 mps 742 mmHg 87%

    Day after tomorrow, 25 September, Tuesday

    Time Temperature Precipitation Wind Pressure Humidity
    00:00 +25°C° 0.1 mm 1 mps 742 mmHg 86%
    01:00 +25°C° 0.1 mm 1 mps 741 mmHg 84%
    02:00 +24°C° 0.1 mm 1 mps 741 mmHg 83%
    03:00 +24°C° 0.1 mm 1 mps 741 mmHg 82%
    04:00 +24°C° 0.1 mm 1 mps 741 mmHg 81%
    05:00 +24°C° 0.5 mm 1 mps 742 mmHg 83%
    06:00 +24°C° 0.5 mm 1 mps 742 mmHg 84%
    07:00 +24°C° 0.5 mm 1 mps 743 mmHg 86%
    08:00 +25°C° 1.2 mm 1 mps 743 mmHg 87%
    09:00 +25°C° 1.2 mm 1 mps 743 mmHg 89%
    10:00 +25°C° 1.2 mm 1 mps 743 mmHg 91%
    11:00 +28°C° 0.5 mm 1 mps 743 mmHg 80%
    12:00 +30°C° 0.5 mm 1 mps 742 mmHg 70%
    13:00 +32°C° 0.5 mm 1 mps 741 mmHg 60%
    14:00 +32°C° 0.5 mm 1 mps 741 mmHg 63%
    15:00 +32°C° 0.5 mm 1 mps 740 mmHg 66%
    16:00 +31°C° 0.5 mm 1 mps 739 mmHg 68%
    17:00 +30°C° 0.4 mm 1 mps 740 mmHg 74%
    18:00 +28°C° 0.4 mm 1 mps 740 mmHg 79%
    19:00 +26°C° 0.4 mm 1 mps 740 mmHg 84%
    20:00 +26°C° 0.1 mm 1 mps 741 mmHg 82%
    21:00 +26°C° 0.1 mm 1 mps 741 mmHg 81%
    22:00 +26°C° 0.1 mm 1 mps 742 mmHg 79%
    23:00 +25°C° 0.1 mm 1 mps 741 mmHg 77%

    26 September, Wednesday

    Time Temperature Precipitation Wind Pressure Humidity
    00:00 +25°C° 0.1 mm 1 mps 741 mmHg 76%
    01:00 +25°C° 0.1 mm 1 mps 741 mmHg 74%
    02:00 +24°C° 0.4 mm 1 mps 741 mmHg 75%
    03:00 +24°C° 0.4 mm 1 mps 741 mmHg 76%
    04:00 +24°C° 0.4 mm 1 mps 740 mmHg 77%
    05:00 +25°C° 0.2 mm 1 mps 741 mmHg 75%
    06:00 +26°C° 0.2 mm 1 mps 741 mmHg 74%
    07:00 +27°C° 0.2 mm 1 mps 742 mmHg 72%
    08:00 +29°C° 0 mm 1 mps 742 mmHg 65%
    09:00 +32°C° 0 mm 1 mps 742 mmHg 58%
    10:00 +34°C° 0 mm 1 mps 742 mmHg 51%
    11:00 +34°C° 0.1 mm 1 mps 741 mmHg 50%
    12:00 +35°C° 0.1 mm 1 mps 740 mmHg 50%
    13:00 +36°C° 0.1 mm 2 mps 739 mmHg 50%
    14:00 +35°C° 0.2 mm 2 mps 739 mmHg 55%
    15:00 +35°C° 0.2 mm 2 mps 738 mmHg 60%
    16:00 +33°C° 0.2 mm 1 mps 738 mmHg 65%
    17:00 +31°C° 1.4 mm 1 mps 738 mmHg 73%
    18:00 +29°C° 1.4 mm 1 mps 739 mmHg 82%
    19:00 +27°C° 1.4 mm 1 mps 739 mmHg 90%
    20:00 +27°C° 2.1 mm 1 mps 740 mmHg 91%
    21:00 +26°C° 2.1 mm 1 mps 740 mmHg 91%
    22:00 +26°C° 2.1 mm 1 mps 741 mmHg 92%
    23:00 +26°C° 1.5 mm 1 mps 740 mmHg 91%

    27 September, Thursday

    Time Temperature Precipitation Wind Pressure Humidity
    00:00 +26°C° 1.5 mm 1 mps 740 mmHg 90%
    01:00 +25°C° 1.5 mm 1 mps 739 mmHg 89%
    02:00 +25°C° 1.2 mm 1 mps 740 mmHg 88%
    03:00 +25°C° 1.2 mm 1 mps 740 mmHg 88%
    04:00 +25°C° 1.2 mm 1 mps 740 mmHg 87%
    05:00 +25°C° 0.6 mm 1 mps 740 mmHg 86%
    06:00 +26°C° 0.6 mm 1 mps 741 mmHg 85%
    07:00 +26°C° 0.6 mm 1 mps 742 mmHg 84%
    08:00 +28°C° 0.4 mm 1 mps 742 mmHg 79%
    09:00 +29°C° 0.4 mm 1 mps 742 mmHg 75%
    10:00 +31°C° 0.4 mm 1 mps 742 mmHg 71%
    11:00 +31°C° 0.6 mm 1 mps 741 mmHg 71%
    12:00 +31°C° 0.6 mm 1 mps 740 mmHg 71%
    13:00 +32°C° 0.6 mm 1 mps 739 mmHg 70%
    14:00 +31°C° 0.2 mm 1 mps 739 mmHg 71%
    15:00 +31°C° 0.2 mm 1 mps 739 mmHg 73%
    16:00 +31°C° 0.2 mm 1 mps 738 mmHg 74%
    17:00 +29°C° 0.1 mm 1 mps 739 mmHg 78%
    18:00 +26°C° 0.1 mm 0 mps 739 mmHg 82%
    19:00 +25°C° 0.1 mm 0 mps 740 mmHg 86%
    20:00 +25°C° 0.1 mm 0 mps 740 mmHg 86%
    21:00 +25°C° 0.1 mm 0 mps 741 mmHg 86%
    22:00 +26°C° 0.1 mm 1 mps 741 mmHg 85%
    23:00 +26°C° 0.1 mm 1 mps 741 mmHg 85%

    28 September, Friday

    Time Temperature Precipitation Wind Pressure Humidity
    00:00 +26°C° 0.1 mm 1 mps 740 mmHg 85%
    01:00 +25°C° 0.1 mm 1 mps 740 mmHg 84%
    02:00 +25°C° 0.5 mm 1 mps 740 mmHg 84%
    03:00 +25°C° 0.5 mm 1 mps 740 mmHg 83%
    04:00 +25°C° 0.5 mm 1 mps 740 mmHg 83%
    05:00 +25°C° 0.4 mm 1 mps 741 mmHg 81%
    06:00 +24°C° 0.4 mm 0 mps 741 mmHg 79%
    07:00 +25°C° 0.4 mm 0 mps 742 mmHg 77%
    08:00 +27°C° 0 mm 0 mps 742 mmHg 70%
    09:00 +31°C° 0 mm 1 mps 742 mmHg 63%
    10:00 +33°C° 0 mm 1 mps 742 mmHg 56%
    11:00 +34°C° 0 mm 1 mps 741 mmHg 55%
    12:00 +34°C° 0 mm 1 mps 740 mmHg 54%
    13:00 +34°C° 0 mm 1 mps 739 mmHg 54%
    14:00 +34°C° 0.1 mm 1 mps 739 mmHg 58%
    15:00 +33°C° 0.1 mm 1 mps 739 mmHg 63%
    16:00 +32°C° 0.1 mm 1 mps 738 mmHg 67%
    17:00 +31°C° 0.9 mm 1 mps 739 mmHg 75%
    18:00 +29°C° 0.9 mm 1 mps 739 mmHg 83%
    19:00 +25°C° 0.9 mm 0 mps 740 mmHg 91%
    20:00 +27°C° 1.1 mm 1 mps 740 mmHg 92%
    21:00 +26°C° 1.1 mm 1 mps 741 mmHg 93%
    22:00 +26°C° 1.1 mm 1 mps 741 mmHg 94%
    23:00 +26°C° 1.4 mm 1 mps 741 mmHg 93%
    Show more